Location: Gombori
(14.9797°N, 2.9419°W)
Time: 01:42:25
(UTC+00:00)

Meteor 2-13 Rocket - Pass Details

Date: 08 December 2021
Orbit: 936 x 957 km, 82.5° (Epoch: 24 January)

Event Time Altitude Azimuth Distance (km) Brightness Sun altitude
Rises 04:07:49 0° 181° (S) 3,618 7.7 -32.1°
Reaches altitude 10° 04:10:19 10° 179° (S) 2,671 7.0 -31.5°
Maximum altitude 04:16:25 79° 94° (E) 967 4.4 -30.1°
Enters shadow 04:17:54 54° 19° (NNE) 1,142 4.7 -29.8°
